Location: Unspecified
(0.0000°N, 0.0000°E)
Time: 08:24:04
(UTC+00:00)

A-11 Canister half - Visible Passes

Search period start: 24 July 2014 00:00
Search period end: 03 August 2014 00:00
Orbit: 1517 x 1683 km, 47.2° (Epoch: 22 July)

Date Brightness Start Highest point End Pass type
(mag) Time Alt. Az. Time Alt. Az. Time Alt. Az.
24 Jul 9.0 03:16:04 73° NE 03:16:20 74° NE 03:25:38 10° SE visible
24 Jul 9.9 05:14:35 11° W 05:21:08 22° SW 05:27:53 10° S visible
25 Jul 9.8 02:57:20 40° ESE 02:57:20 40° ESE 03:02:44 10° SE visible
25 Jul 9.8 04:55:44 22° WSW 04:58:15 24° SW 05:05:22 10° S visible
26 Jul 10.6 02:37:42 19° SE 02:37:42 19° SE 02:39:49 10° SE visible
26 Jul 9.7 04:36:02 27° SW 04:36:02 27° SW 04:42:50 10° S visible
27 Jul 10.0 04:15:52 24° SSW 04:15:52 24° SSW 04:20:15 10° S visible
28 Jul 10.4 03:55:21 18° S 03:55:21 18° S 03:57:39 10° S visible
29 Jul 10.8 03:34:36 11° SSE 03:34:36 11° SSE 03:35:01 10° SSE visible
